This demonstration page uses our WeatherBlox Daily Observations layout. Learn more.

Left ArrowRight Arrow

Hourly Observations for August 16, 2022

Temp ( °F °C ) Dew Point ( °F °C ) Humidity (%) Winds ( mph kmh ) Pressure ( in mb ) Visibility ( mi km ) Precip ( " mm )
12:22 am 00:22 Cloudy with Light Rain 64 17.8 61 16.1 90 90 ENE 9 15 30.03 1017 9 14 0.01 0.25
12:29 am 00:29 Cloudy with Light Rain 63 17.2 61 16.1 93 93 ENE 10 17 30.02 1017 9 14 0.01 0.25
12:41 am 00:41 Cloudy 63 17.2 60 15.6 90 90 E 12 19 30.01 1016 10 16 0.01 0.25
12:49 am 00:49 Cloudy with Nearby Thunderstorms 63 17 61 16 94 94 E 12 19 30.01 1016 10 16 0.01 0.25
12:54 am 00:54 Cloudy with Nearby Thunderstorms 63 17.2 60 15.6 90 90 E 9 15 30.00 1016 10 16 0.01 0.25
1:04 am 01:04 Cloudy with Nearby Thunderstorms 63 17.2 60 15.6 90 90 E 9 15 30.01 1016 10 16 0.00 0.00
1:19 am 01:19 Cloudy with Light Rain 63 17.2 60 15.6 90 90 ENE 8 13 30.01 1016 10 16 0.01 0.13
1:45 am 01:45 Cloudy 63 17.2 61 16.1 93 93 ENE 8 13 30.01 1016 10 16 0.01 0.13
1:54 am 01:54 Cloudy 63 17.2 61 16.1 93 93 NE 8 13 30.01 1016 10 16 0.01 0.13
2:39 am 02:39 Cloudy 63 17.2 61 16.1 93 93 ENE 9 15 30.01 1016 10 16 0.00 0.00
2:54 am 02:54 Cloudy 63 17.2 61 16.1 93 93 ENE 9 15 30.01 1016 10 16 0.00 0.00
3:23 am 03:23 Cloudy 62 16.7 60 15.6 93 93 ENE 10 17 30.02 1017 10 16 0.00 0.00
3:50 am 03:50 Cloudy 63 17 59 15 88 88 ENE 10 17 30.02 1017 10 16 0.00 0.00
3:54 am 03:54 Cloudy 62 16.7 59 15 90 90 ENE 12 19 30.02 1017 10 16 0.00 0.00
4:07 am 04:07 Cloudy 62 16.7 59 15 90 90 ENE 14 22 30.02 1017 10 16 0.00 0.00
4:24 am 04:24 Cloudy 62 16.7 59 15 90 90 ENE 14 22 30.03 1017 10 16 0.00 0.00
4:54 am 04:54 Cloudy 62 16.7 59 15 90 90 ENE 12 19 30.03 1017 10 16 0.00 0.00
5:54 am 05:54 Cloudy 63 17.2 60 15.6 90 90 ENE 12 19 30.04 1017 10 16 0.00 0.00
6:54 am 06:54 Cloudy 63 17.2 61 16.1 93 93 ENE 10 17 30.04 1017 9 14 0.01 0.25
7:54 am 07:54 Cloudy with Mist and Fog 63 17.2 61 16.1 93 93 E 12 19 30.07 1018 3 4 0.00 0.00
8:40 am 08:40 Cloudy with Mist and Fog 64 17.8 61 16.1 90 90 ESE 6 9 30.08 1019 4 6 0.00 0.00
8:54 am 08:54 Cloudy 64 17.8 62 16.7 93 93 E 6 9 30.08 1019 7 11 0.00 0.00
9:54 am 09:54 Cloudy 65 18.3 62 16.7 90 90 E 6 9 30.09 1019 10 16 0.00 0.00
10:54 am 10:54 Cloudy with Mist and Fog 65 18.3 63 17.2 93 93 ENE 10 17 30.09 1019 6 10 0.00 0.00
11:54 am 11:54 Cloudy 67 19.4 63 17.2 87 87 E 14 22 30.09 1019 10 16 0.01 0.13
12:54 pm 12:54 Cloudy 69 20.6 63 17.2 81 81 E 7 11 30.08 1019 10 16 0.00 0.00
1:30 pm 13:30 Cloudy 70 21.1 63 17.2 78 78 ENE 13 20 30.06 1018 10 16 0.00 0.00
1:54 pm 13:54 Cloudy 70 21.1 63 17.2 78 78 E 10 17 30.08 1019 10 16 0.00 0.00
2:54 pm 14:54 Cloudy 72 22.2 63 17.2 73 73 ESE 9 15 30.09 1019 10 16 0.00 0.00
3:37 pm 15:37 Cloudy 74 23.3 63 17.2 69 69 E 10 17 30.06 1018 10 16 0.00 0.00
3:54 pm 15:54 Cloudy 73 22.8 63 17.2 71 71 ESE 9 15 30.09 1019 10 16 0.00 0.00
4:54 pm 16:54 Cloudy 74 23.3 63 17.2 69 69 ESE 9 15 30.09 1019 10 16 0.00 0.00
5:54 pm 17:54 Cloudy 75 23.9 62 16.7 64 64 E 9 15 30.08 1019 10 16 0.00 0.00
6:54 pm 18:54 Cloudy 76 24.4 62 16.7 62 62 ESE 7 11 30.08 1019 10 16 0.00 0.00
7:54 pm 19:54 Sunny 73 22.8 62 16.7 68 68 Calm 30.07 1018 10 16 0.00 0.00
8:54 pm 20:54 Clear 68 20 62 16.7 81 81 NNE 3 6 30.08 1019 10 16 0.00 0.00
9:54 pm 21:54 Clear 68 20 63 17.2 84 84 N 5 7 30.09 1019 10 16 0.00 0.00
10:54 pm 22:54 Clear 67 19.4 63 17.2 87 87 NNW 3 6 30.11 1020 10 16 0.00 0.00
11:54 pm 23:54 Clear 63 17.2 60 15.6 90 90 N 5 7 30.11 1020 10 16 0.00 0.00

Powered by AerisWeather